Flag Weather past 2 weeks in Jujuy, Jujuy, Argentina

Now
81 °F

Scattered clouds.


Feels Like: 83 °F
Forecast: 60 / 80 °F
Wind: 3 mph from Northeast

Location: Jujuy Aerodrome

Current Time: Oct 31, 2014 at 12:13:03 PM

Latest Report: Oct 31, 2014 at 11:00 AM


Visibility: N/A

Pressure: 30.04 "Hg

Humidity: 62%

Dew point: 66 °F

Location of JujuyLocation

Historic Weather in Jujuy — Graph

°F

Jujuy temperature yesterday

Maximum temperature yesterday: 84 °F (at 3:00 PM)
Minimum temperature yesterday: 72 °F (at 9:00 AM)
Average temperature yesterday: 78 °F

Past Weeks' High & Low Weather Summary

 TemperatureHumidityPressure
High108 °F (Oct 16, 4:00 PM)100% (Oct 19, 11:00 PM)30.21 "Hg (Oct 19, 11:00 PM)
Low59 °F (Oct 21, 6:00 AM)17% (Oct 16, 1:00 PM)29.50 "Hg (Oct 29, 4:00 PM)
Average79 °F57%29.89 "Hg
* Reported Oct 16 11:00 AM — Oct 31 11:00 AM, Jujuy, Weather by CustomWeather, © 2014

Note: Actual official high and low records may vary slightly from our data, if they occured in-between our weather recording intervals... More about our weather records

Advertising

Jujuy weather history for previous 24 hours

 ConditionsComfort  
Time TempWeatherWind HumidityBarometerVisibility
11:00 AM
Oct 31
81 °FScattered clouds.3 mph62%30.04 "HgN/A
10:00 AM79 °FScattered clouds.6 mph65%29.89 "HgN/A
9:00 AM75 °FScattered clouds.3 mph74%29.89 "HgN/A
8:00 AM73 °FScattered clouds.3 mph74%29.89 "HgN/A
7:00 AM72 °FMild.2 mph78%29.86 "HgN/A
6:00 AM73 °FBroken clouds.2 mph74%29.86 "HgN/A
5:00 AM73 °FPartly cloudy.3 mph74%29.83 "HgN/A
4:00 AM73 °FPartly cloudy.2 mph78%29.83 "HgN/A
3:00 AM75 °FPartly cloudy.2 mph74%29.83 "HgN/A
2:00 AM75 °FPartly cloudy.2 mph74%29.86 "HgN/A
1:00 AM75 °FPartly cloudy.3 mph74%29.86 "HgN/A
12:00 AM75 °FPartly cloudy.3 mph69%29.86 "HgN/A
11:00 PM
Oct 30
75 °FPartly cloudy.No wind74%29.86 "HgN/A
10:00 PM77 °FPartly cloudy.No wind69%29.83 "HgN/A
9:00 PM79 °FPartly cloudy.3 mph61%29.80 "HgN/A
8:00 PM79 °FPartly cloudy.5 mph61%29.77 "HgN/A
7:00 PM79 °FPassing clouds.6 mph58%29.74 "HgN/A
6:00 PM81 °FScattered clouds.7 mph54%29.74 "HgN/A
5:00 PM82 °FScattered clouds.8 mph51%29.71 "HgN/A
4:00 PM82 °FScattered clouds.5 mph45%29.74 "HgN/A
3:00 PM84 °FPassing clouds.6 mph45%29.77 "HgN/A
2:00 PM81 °FBroken clouds.3 mph51%29.80 "HgN/A
1:00 PM81 °FBroken clouds.6 mph48%29.83 "HgN/A
12:00 PM79 °FBroken clouds.8 mph51%29.86 "HgN/A
Weather by CustomWeather, © 2014

See weather overviewHow to use our weather pages